Showing default

COSMOS 2384, 27055

Orbit data source: Space-Track

COSMOS 2384, 27055 is a payload satellite owned by KVR (CIS) in LEO that was launched on Fri, 28 Dec 2001 UTC via a TSIKLON-3 launch vehicle from the Plesetsk Missile And Space Complex (PKMTR). Payloads include a variety of satellites, spacecraft, and rockets equipped with specific instruments for various scientific and technological missions. These include communications satellites like Starlink; space stations such as the ISS; scientific satellites like the Hubble; Earth observation satellites from companies like Planet Labs, Umbra, and HawkEye 360; GPS; miniature CubeSats for education and research; and military/defense satellites.

Loading next visibility...
COSMOS 2384 details
Identifier
27055, 2001-058A
Orbit
LEO
Last TLE update10 hours ago
Origin
Flag of CISKVR (CIS)
ManufacturerNPO PM
MissionNon-operational Defense Communications
Bus & MotorSTRELA-3, Unknown motor
Mass225 kg wet, 225 kg dry
Launch date (UTC)
2001-12-28 (23 years ago)
Launch vehicle
TSIKLON-3
Launch site
Plesetsk Missile And Space Complex (PKMTR)
Object type
Payload
Rocket body
Debris
Shape & HBRCyl + 1 Arm, 7 m
Radar Cross Section1.257 m², Medium (>0.1 m² and < 1m²)

Expand to show TLE details & history

TLE from 10 hours ago
0 COSMOS 2384
1 27055U 01058A   25047.10300018  .00000033  00000-0  13194-3 0  9991
2 27055  82.5481 183.7209 0009237 268.6524  91.3507 12.59875683 64103
Epoch: 2025-02-16T02:28Z
Definitive object data (Epoch: 2025-02-16T02:28:19.215Z)
Latitude-0.00007°
Longitude0.29996°
Altitude1,426.36 km
Speed7.148 km/s
True Right ascension12h 14m 53s
True Declination0° 00' 00"
Sunlit
Object was in full shadow at TLE epoch
Visualization TLE readout
Latitude76.55429°
Longitude33.01978°
Altitude1,443.584 km
Speed7.143 km/s
Apparent Right ascension03h 38m 10s
Apparent Declination48° 17' 19"
Sunlit
Object is in daylight
Visualization observer readout
Local Sidereal Time15:11:36
Azimuth355.584° N
Elevation-1.599°
Doppler factor1
Orbital elements
Apogee altitude1,427.987 km
Perigee altitude1,413.579 km
Semi-major axis7,798.92 km
Eccentricity0.0009237
Inclination82.5481°
RAAN183.7209°
Arg. of periapsis268.6524°
True anomaly91.45652°
Mean anomaly91.3507°
Eccentric anomaly91.40361°
Mean motion3.15131 °/min
BSTAR0.00013194
Orbital period114.24 mins
Loading maneuver chart data...
Loading historical data...
Loading historical data...
Loading historical data...
Loading historical data...
Loading historical data...
Loading historical data...
Loading historical data...

COSMOS 2384 Visibility forecast

Observer location: undefined°, undefined

Span
Click to sort rows by Start time (UTC) header in descending order
Start Az.
Max El. time (UTC)
Max El. Az.
Max El.
End time (UTC)
End Az.
15 mins2025-02-16 20:14:05.170Z2.524° NNE2025-02-16 20:21:05.170Z66.993° ENE38.918°2025-02-16 20:29:05.170Z152.373° SSE
12 mins2025-02-16 22:11:05.170Z324.366° NNW2025-02-16 22:16:05.170Z278.222° WNW27.016°2025-02-16 22:23:05.170Z219.762° SW
14 mins2025-02-17 09:04:05.170Z161.804° S2025-02-17 09:11:05.170Z78.934° E39.362°2025-02-17 09:18:05.170Z17.344° NNE
13 mins2025-02-17 11:00:05.170Z235.345° WSW2025-02-17 11:06:05.170Z288.005° WNW26.977°2025-02-17 11:13:05.170Z347.682° N
|